This demonstration page uses our WeatherBlox Daily Observations layout. Learn more.

Left ArrowRight Arrow

Hourly Observations for November 2, 2020

Temp ( °F °C ) Dew Point ( °F °C ) Humidity (%) Winds ( mph kmh ) Pressure ( in mb ) Visibility ( mi km ) Precip ( " mm )
12:15 am 00:15 Clear 30 -1 23 -5 75 75 W 10 17 30.43 1030 10 16 N/A
12:35 am 00:35 Clear 30 -1 23 -5 75 75 WNW 10 17 30.43 1030 10 16 N/A
12:55 am 00:55 Clear 30 -1 23 -5 75 75 WNW 12 19 30.43 1030 10 16 N/A
1:15 am 01:15 Clear 30 -1 23 -5 75 75 WNW 12 19 30.43 1030 10 16 N/A
1:35 am 01:35 Clear 28 -2 23 -5 80 80 WNW 9 15 30.44 1031 10 16 N/A
1:55 am 01:55 Clear 28 -2 23 -5 80 80 WNW 8 13 30.42 1030 10 16 N/A
2:15 am 02:15 Clear 28 -2 23 -5 80 80 W 8 13 30.42 1030 10 16 N/A
2:35 am 02:35 Clear 28 -2 23 -5 80 80 WNW 9 15 30.43 1031 10 16 N/A
2:55 am 02:55 Clear 28 -2 23 -5 80 80 WNW 8 13 30.44 1031 10 16 N/A
3:15 am 03:15 Clear 27 -3 23 -5 86 86 WNW 8 13 30.44 1031 10 16 N/A
3:35 am 03:35 Clear 27 -3 23 -5 86 86 W 7 11 30.44 1031 10 16 N/A
3:55 am 03:55 Clear 25 -4 23 -5 93 93 W 6 9 30.45 1031 10 16 N/A
4:15 am 04:15 Clear 25 -4 23 -5 93 93 W 6 9 30.45 1031 10 16 N/A
4:35 am 04:35 Clear 25 -4 23 -5 93 93 W 5 7 30.45 1031 10 16 N/A
4:55 am 04:55 Clear 25 -4 25 -4 100 100 W 6 9 30.45 1031 10 16 N/A
5:15 am 05:15 Clear 27 -3 25 -4 93 93 W 6 9 30.46 1031 10 16 N/A
5:35 am 05:35 Clear 27 -3 25 -4 93 93 W 6 9 30.47 1032 10 16 N/A
5:55 am 05:55 Clear 27 -3 25 -4 93 93 W 6 9 30.46 1031 10 16 N/A
6:15 am 06:15 Clear 25 -4 25 -4 100 100 WSW 5 7 30.47 1032 10 16 N/A
6:35 am 06:35 Clear 25 -4 25 -4 100 100 WSW 6 9 30.47 1032 10 16 N/A
6:55 am 06:55 Clear 25 -4 23 -5 93 93 WSW 7 11 30.46 1032 10 16 N/A
7:15 am 07:15 Sunny 25 -4 25 -4 100 100 WSW 6 9 30.46 1032 10 16 N/A
7:35 am 07:35 Sunny 27 -3 25 -4 93 93 WSW 5 7 30.46 1031 10 16 N/A
7:55 am 07:55 Sunny 28 -2 27 -3 93 93 W 6 9 30.46 1032 10 16 N/A
8:15 am 08:15 Sunny 28 -2 27 -3 93 93 WSW 5 7 30.46 1032 10 16 N/A
8:35 am 08:35 Sunny 30 -1 25 -4 80 80 WSW 7 11 30.46 1031 10 16 N/A
8:55 am 08:55 Sunny 32 undefined 25 -4 75 75 WSW 7 11 30.46 1031 10 16 N/A
9:15 am 09:15 Sunny 36 2 25 -4 65 65 WSW 9 15 30.46 1031 10 16 N/A
9:35 am 09:35 Sunny 36 2 23 -5 60 60 W 10 17 30.46 1031 10 16 N/A
9:55 am 09:55 Sunny 37 3 23 -5 56 56 WSW 8 13 30.45 1031 10 16 N/A
10:15 am 10:15 Sunny 37 3 23 -5 56 56 WSW 8 13 30.45 1031 10 16 N/A
10:35 am 10:35 Sunny 39 4 23 -5 52 52 W 12 19 30.43 1031 10 16 N/A
10:55 am 10:55 Sunny 39 4 21 -6 48 48 SW 13 20 30.43 1031 10 16 N/A
11:15 am 11:15 Sunny 41 5 21 -6 45 45 WSW 9 15 30.42 1030 10 16 N/A
11:35 am 11:35 Sunny 43 6 23 -5 46 46 WSW 10 17 30.40 1030 10 16 N/A
11:55 am 11:55 Sunny 43 6 23 -5 46 46 WSW 13 20 30.39 1029 10 16 N/A
12:15 pm 12:15 Sunny 43 6 25 -4 49 49 W 12 19 30.38 1029 10 16 N/A
12:35 pm 12:35 Sunny 45 7 23 -5 42 42 WSW 12 19 30.37 1028 10 16 N/A
12:55 pm 12:55 Sunny 45 7 23 -5 42 42 WSW 12 19 30.35 1028 10 16 N/A
1:15 pm 13:15 Sunny 46 8 23 -5 40 40 WSW 13 20 30.34 1027 10 16 N/A
1:35 pm 13:35 Sunny 46 8 23 -5 40 40 WSW 15 24 30.33 1027 10 16 N/A
1:55 pm 13:55 Sunny 46 8 23 -5 40 40 W 10 17 30.32 1027 10 16 N/A
2:15 pm 14:15 Sunny 46 8 21 -6 37 37 WSW 13 20 30.31 1026 10 16 N/A
2:35 pm 14:35 Sunny 48 9 21 -6 34 34 WSW 13 20 30.30 1026 10 16 N/A
2:55 pm 14:55 Sunny 48 9 21 -6 34 34 WSW 12 19 30.29 1026 10 16 N/A
3:15 pm 15:15 Sunny 48 9 23 -5 37 37 WSW 14 22 30.28 1026 10 16 N/A
3:35 pm 15:35 Sunny 46 8 23 -5 40 40 WSW 10 17 30.29 1026 10 16 N/A
3:55 pm 15:55 Sunny 48 9 23 -5 37 37 WSW 14 22 30.28 1026 10 16 N/A
4:15 pm 16:15 Sunny 48 9 21 -6 34 34 WSW 13 20 30.27 1025 10 16 N/A
4:35 pm 16:35 Sunny 46 8 23 -5 40 40 SW 15 24 30.27 1025 10 16 N/A
4:55 pm 16:55 Sunny 46 8 21 -6 37 37 SW 14 22 30.27 1025 10 16 N/A
5:15 pm 17:15 Sunny 45 7 23 -5 42 42 SW 8 13 30.26 1025 10 16 N/A
5:35 pm 17:35 Sunny 43 6 21 -6 42 42 SW 8 13 30.25 1025 10 16 N/A
5:55 pm 17:55 Clear 43 6 21 -6 42 42 SW 8 13 30.25 1025 10 16 N/A
6:15 pm 18:15 Clear 41 5 23 -5 49 49 SSW 8 13 30.25 1024 10 16 N/A
6:35 pm 18:35 Clear 41 5 23 -5 49 49 SSW 8 13 30.25 1024 10 16 N/A
6:55 pm 18:55 Clear 41 5 23 -5 49 49 SSW 10 17 30.24 1024 10 16 N/A
7:15 pm 19:15 Clear 41 5 23 -5 49 49 SSW 12 19 30.24 1024 10 16 N/A
7:35 pm 19:35 Clear 41 5 23 -5 49 49 SSW 12 19 30.24 1024 10 16 N/A
7:55 pm 19:55 Clear 41 5 23 -5 49 49 SSW 9 15 30.24 1024 10 16 N/A
8:15 pm 20:15 Clear 41 5 23 -5 49 49 SSW 9 15 30.24 1024 10 16 N/A
8:35 pm 20:35 Clear 41 5 23 -5 49 49 SW 10 17 30.24 1024 10 16 N/A
8:55 pm 20:55 Clear 41 5 23 -5 49 49 SW 12 19 30.22 1023 10 16 N/A
9:15 pm 21:15 Clear 41 5 23 -5 49 49 SW 12 19 30.23 1024 10 16 N/A
9:35 pm 21:35 Clear 41 5 23 -5 49 49 SW 10 17 30.23 1024 10 16 N/A
9:55 pm 21:55 Clear 39 4 23 -5 52 52 SW 8 13 30.24 1024 10 16 N/A
10:15 pm 22:15 Clear 39 4 25 -4 56 56 SW 9 15 30.23 1024 10 16 N/A
10:35 pm 22:35 Clear 39 4 25 -4 56 56 SW 9 15 30.22 1023 10 16 N/A
10:55 pm 22:55 Clear 39 4 25 -4 56 56 SW 8 13 30.22 1023 10 16 N/A
11:15 pm 23:15 Clear 39 4 25 -4 56 56 SW 8 13 30.22 1023 10 16 N/A
11:35 pm 23:35 Clear 37 3 25 -4 60 60 SW 7 11 30.22 1024 10 16 N/A
11:55 pm 23:55 Clear 37 3 25 -4 60 60 SW 7 11 30.22 1024 10 16 N/A

Powered by AerisWeather